Weather History for Detroit, MI

Change the Weather History Date:

Friday, January 24, 2014

  Actual Average Record
Temperature  
Mean Temperature 10 °F -  
Max Temperature 19 °F 33 °F 57 °F (1950)
Min Temperature 1 °F 21 °F -13 °F (1963)
Degree Days  
Heating Degree Days 56    
Moisture  
Dew Point 1 °F    
Average Humidity 66    
Maximum Humidity 80    
Minimum Humidity 52    
Precipitation  
Precipitation 0.00 in - - ()
Sea Level Pressure  
Sea Level Pressure 30.01 in    
Wind  
Wind Speed 15 mph (SW)    
Max Wind Speed 29 mph    
Max Gust Speed 41 mph    
Visibility 6 miles    
Events Snow    
Averages and records for this station are not official NWS values.
T = Trace of Precipitation, MM = Missing Value Source: NWS Daily Summary

Daily Weather History Graph

Daily Weather History Graph

Search for Another Location

Airport:

Trip Planner

Search our weather history database for the weather conditions in past years. The results will help you decide how hot, cold, wet, or windy it might be!

Date:

Astronomy

Jan. 24, 2014 Rise Set
Actual Time 7:53 AM EST 5:35 PM EST
Civil Twilight 7:22 AM EST 6:06 PM EST
Nautical Twilight 6:48 AM EST 6:40 PM EST
Astronomical Twilight 6:15 AM EST 7:13 PM EST
Moon 1:17 AM EST (1/24) 11:55 AM EST (1/24)
Length of Visible Light 10h 43m
Length of Day
9h 42m
Last Quarter, 45% of the Moon is Illuminated
Jan 24
Last Quarter
Jan 30
New
Feb 6
First Quarter
Feb 14
Full
Feb 22
Last Quarter

Hourly Weather History & Observations

Time (EST) Temp. Windchill Dew Point Humidity Pressure Visibility Wind Dir Wind Speed Gust Speed Precip Events Conditions
12:53 AM 7.0 °F -1.7 °F -2.9 °F 64% 30.42 in 10.0 mi WSW 4.6 mph - N/A   Clear
1:53 AM 5.0 °F -5.6 °F -0.9 °F 76% 30.45 in 10.0 mi SW 5.8 mph - N/A   Scattered Clouds
2:53 AM 5.0 °F -6.9 °F -0.9 °F 76% 30.45 in 10.0 mi SW 6.9 mph - N/A   Mostly Cloudy
3:53 AM 5.0 °F -9.1 °F -0.0 °F 80% 30.43 in 10.0 mi SW 9.2 mph - N/A   Mostly Cloudy
4:53 AM 3.9 °F -10.4 °F -0.9 °F 80% 30.42 in 10.0 mi SW 9.2 mph - N/A   Clear
5:53 AM 3.9 °F -11.3 °F -2.0 °F 76% 30.40 in 10.0 mi SW 10.4 mph - N/A   Clear
6:53 AM 3.9 °F -15.0 °F -2.9 °F 73% 30.38 in 10.0 mi WSW 16.1 mph 21.9 mph N/A   Clear
7:42 AM 3.2 °F -13.9 °F -4.0 °F 72% 30.31 in 7.0 mi SW 12.7 mph - N/A   Scattered Clouds
7:53 AM 1.9 °F -16.9 °F -4.0 °F 76% 30.35 in 5.0 mi SW 15.0 mph - N/A   Haze
8:13 AM 1.4 °F -19.4 °F -5.8 °F 72% 30.30 in 9.0 mi SW 18.4 mph 25.3 mph N/A   Scattered Clouds
8:53 AM 1.9 °F -16.9 °F -7.1 °F 66% 30.32 in 10.0 mi SW 15.0 mph 26.5 mph N/A   Clear
9:53 AM 3.0 °F -16.1 °F -7.1 °F 63% 30.29 in 10.0 mi SW 16.1 mph 23.0 mph N/A   Clear
10:53 AM 3.9 °F -16.6 °F -8.0 °F 58% 30.26 in 9.0 mi SW 19.6 mph 31.1 mph N/A   Mostly Cloudy
11:53 AM 6.1 °F -15.2 °F -6.0 °F 58% 30.19 in 10.0 mi SW 23.0 mph 34.5 mph N/A   Scattered Clouds
12:53 PM 7.0 °F -14.5 °F -5.1 °F 58% 30.11 in 8.0 mi SW 24.2 mph 31.1 mph N/A   Mostly Cloudy
1:53 PM 9.0 °F -12.2 °F -4.0 °F 56% 30.01 in 6.0 mi SW 25.3 mph 32.2 mph N/A   Haze
2:53 PM 10.9 °F -8.3 °F -2.0 °F 56% 29.96 in 10.0 mi SSW 21.9 mph 32.2 mph N/A   Overcast
3:53 PM 12.0 °F -7.7 °F -2.0 °F 53% 29.91 in 8.0 mi SW 24.2 mph 34.5 mph N/A   Overcast
4:53 PM 12.9 °F -6.5 °F -0.9 °F 54% 29.86 in 8.0 mi SW 24.2 mph 34.5 mph N/A   Overcast
5:53 PM 14.0 °F -5.1 °F -0.0 °F 54% 29.86 in 8.0 mi SW 24.2 mph 34.5 mph N/A   Overcast
6:53 PM 16.0 °F -1.3 °F 1.0 °F 52% 29.83 in 9.0 mi SW 20.7 mph 29.9 mph 0.00 in   Overcast
7:49 PM 15.8 °F -2.7 °F 5.0 °F 62% 29.75 in 2.5 mi SW 24.2 mph 32.2 mph 0.00 in Snow Light Snow
7:53 PM 15.1 °F -1.6 °F 5.0 °F 64% 29.79 in 3.0 mi SW 18.4 mph 31.1 mph 0.00 in Snow Light Snow
8:53 PM 17.1 °F -0.3 °F 7.0 °F 65% 29.74 in 3.0 mi SW 21.9 mph 32.2 mph 0.00 in Snow Light Snow
9:46 PM 17.6 °F 0.5 °F 8.6 °F 68% 29.64 in 1.8 mi SW 21.9 mph 39.1 mph 0.00 in Snow Light Snow
9:53 PM 18.0 °F 1.3 °F 8.1 °F 65% 29.68 in 2.0 mi SW 20.7 mph 36.8 mph 0.00 in Snow Light Snow
10:23 PM 17.6 °F -1.3 °F 8.6 °F 68% 29.61 in 3.0 mi SW 27.6 mph 41.4 mph 0.00 in Snow Light Snow
10:34 PM 17.6 °F 1.3 °F 8.6 °F 68% 29.60 in 2.0 mi SW 19.6 mph 36.8 mph 0.00 in Snow Light Snow
10:46 PM 17.6 °F -0.3 °F 8.6 °F 68% 29.59 in 2.5 mi SW 24.2 mph 34.5 mph 0.00 in Snow Light Snow
10:53 PM 18.0 °F -1.1 °F 9.0 °F 68% 29.62 in 2.5 mi SW 28.8 mph 35.7 mph 0.00 in Snow Light Snow
10:59 PM 17.6 °F 0.1 °F 10.4 °F 73% 29.58 in 1.8 mi SW 23.0 mph 35.7 mph 0.00 in Snow Light Snow
11:22 PM 17.6 °F 1.3 °F 10.4 °F 73% 29.57 in 2.0 mi SW 19.6 mph 28.8 mph 0.00 in Snow Light Snow
11:53 PM 19.0 °F 3.2 °F 12.0 °F 74% 29.58 in 1.8 mi SW 19.6 mph 31.1 mph 0.00 in Snow Light Snow